Orbital Elements
Epoch 2019 Aug. 25.0 TT = JDT 2458720.5
T 2019 Aug. 5.15722 TT MPC
q 1.3589068 (2000.0) P Q
n 0.14546330 Peri. 14.99076 +0.98193895 -0.18694983
a 3.5806931 Node 355.47153 +0.11207687 +0.69859917
e 0.6204906 Incl. 21.61171 +0.15242922 +0.69065835
P 6.78
From 3172 observations 1998 Nov. 21-2013 Jan. 16, mean residual 0".9.
Nongravitational parameters A1 = +2.68, A2 = +0.2381.
|